GW0468 Weather Reports


Display with metric or nautical units.
time (UTC)temp
F
wind
direction
speed
MPH
gust
MPH
rain 1hr
in
rain 24hr
in
rain mn
in
humidity
%
barometer
mb
20260506091307 76 103 2.0 3.0 0.00 0.00 0.00 1 1007.0
20260506090809 76 135 1.0 7.0 0.00 0.00 0.00 1 1007.0
20260506090306 76 134 2.0 7.0 0.00 0.00 0.00 1 1007.0
20260506085306 76 125 2.0 5.0 0.00 0.00 0.00 1 1007.0
20260506084806 77 114 2.0 6.0 0.00 0.00 0.00 1 1006.8
20260506084306 77 110 4.0 6.0 0.00 0.00 0.00 1 1006.9
20260506083809 77 140 3.0 5.0 0.00 0.00 0.00 1 1006.8
20260506083304 77 118 1.0 3.0 0.00 0.00 0.00 1 1006.9
20260506082807 77 120 1.0 5.0 0.00 0.00 0.00 1 1007.1
20260506082307 77 159 1.0 5.0 0.00 0.00 0.00 1 1007.1
20260506081807 77 110 2.0 7.0 0.00 0.00 0.00 1 1007.0
20260506081304 77 145 4.0 7.0 0.00 0.00 0.00 1 1006.9
20260506080806 77 134 2.0 6.0 0.00 0.00 0.00 1 1006.9
20260506080305 77 131 2.0 6.0 0.00 0.00 0.00 1 1007.1
20260506072806 77 144 2.0 6.0 0.00 0.00 0.00 1 1007.3
20260506072306 77 106 1.0 4.0 0.00 0.00 0.00 1 1007.3
20260506071805 77 127 1.0 5.0 0.00 0.00 0.00 1 1007.5
20260506071303 77 137 2.0 6.0 0.00 0.00 0.00 1 1007.5
20260506070807 77 193 4.0 6.0 0.00 0.00 0.00 1 1007.6
20260506070304 77 137 1.0 5.0 0.00 0.00 0.00 1 1007.8
20260506062305 78 145 3.0 10.0 0.00 0.00 0.00 1 1008.0
20260506061301 78 145 4.0 9.0 0.00 0.00 0.00 1 1008.1
20260506060804 78 124 4.0 9.0 0.00 0.00 0.00 1 1008.1
20260506060300 78 154 5.0 9.0 0.00 0.00 0.00 1 1008.2
20260506051301 78 169 3.0 9.0 0.00 0.00 0.00 1 1008.0
20260506050804 78 171 5.0 9.0 0.00 0.00 0.00 1 1007.9
20260506050301 78 164 3.0 10.0 0.00 0.00 0.00 1 1007.9
20260506044301 78 247 5.0 10.0 0.00 0.00 0.00 1 1007.9
20260506042801 78 210 4.0 10.0 0.00 0.00 0.00 1 1007.6
20260506042257 78 152 3.0 9.0 0.00 0.00 0.00 1 1007.5
20260506041300 78 135 4.0 10.0 0.00 0.00 0.00 1 1007.4
20260506040801 78 176 5.0 11.0 0.00 0.00 0.00 1 1007.4
20260506040258 78 154 5.0 11.0 0.00 0.00 0.00 1 1007.4
20260506035300 78 125 5.0 9.0 0.00 0.00 0.00 1 1007.3
20260506034257 78 162 4.0 12.0 0.00 0.00 0.00 1 1007.2
20260506033800 78 116 4.0 12.0 0.00 0.00 0.00 1 1007.1
20260506033259 78 157 5.0 14.0 0.00 0.00 0.00 1 1007.1
20260506032759 78 148 7.0 14.0 0.00 0.00 0.00 1 1006.9
20260506032257 78 165 6.0 12.0 0.00 0.00 0.00 1 1007.1
20260506031257 78 144 5.0 12.0 0.00 0.00 0.00 1 1007.0
20260506030759 78 123 7.0 15.0 0.00 0.00 0.00 1 1007.0
20260506030257 78 134 6.0 15.0 0.00 0.00 0.00 1 1007.0
20260506025258 78 154 4.0 10.0 0.00 0.00 0.00 1 1007.0
20260506024758 78 142 7.0 10.0 0.00 0.00 0.00 1 1006.9
20260506024258 78 141 4.0 10.0 0.00 0.00 0.00 1 1006.9
20260506023801 78 123 4.0 10.0 0.00 0.00 0.00 1 1006.7
20260506023258 78 147 4.0 10.0 0.00 0.00 0.00 1 1006.7
20260506022759 78 128 5.0 10.0 0.00 0.00 0.00 1 1006.7
20260506022258 78 133 4.0 9.0 0.00 0.00 0.00 1 1006.6
20260506021759 78 155 5.0 9.0 0.00 0.00 0.00 1 1006.5
20260506020757 78 118 3.0 9.0 0.00 0.00 0.00 1 1006.3
20260506020257 78 138 4.0 9.0 0.00 0.00 0.00 1 1006.2
20260506015757 78 117 5.0 10.0 0.00 0.00 0.00 1 1006.3
20260506015256 78 147 6.0 12.0 0.00 0.00 0.00 1 1006.3
20260506014757 78 145 7.0 15.0 0.00 0.00 0.00 1 1006.1
20260506014255 78 147 8.0 15.0 0.00 0.00 0.00 1 1006.0
20260506013758 78 158 6.0 11.0 0.00 0.00 0.00 1 1006.0
20260506013256 78 133 5.0 10.0 0.00 0.00 0.00 1 1005.9
20260506012756 78 116 3.0 13.0 0.00 0.00 0.00 1 1005.9
20260506012255 79 134 6.0 13.0 0.00 0.00 0.00 1 1005.9
20260506011256 79 124 5.0 10.0 0.00 0.00 0.00 1 1005.7
20260506010759 79 137 5.0 9.0 0.00 0.00 0.00 1 1005.6
20260506010254 79 123 5.0 9.0 0.00 0.00 0.00 1 1005.6
20260506005756 79 168 5.0 13.0 0.00 0.00 0.00 1 1005.4
20260506004756 79 141 6.0 14.0 0.00 0.00 0.00 1 1005.4
20260506003758 80 185 4.0 13.0 0.00 0.00 0.00 1 1005.3
20260506003256 80 118 5.0 13.0 0.00 0.00 0.00 1 1005.2
20260506002253 80 135 9.0 13.0 0.00 0.00 0.00 1 1005.2
20260506001756 80 121 5.0 15.0 0.00 0.00 0.00 1 1005.2
20260506001254 80 154 6.0 15.0 0.00 0.00 0.00 1 1005.2
20260506000255 80 155 6.0 14.0 0.00 0.00 0.00 1 1005.2
20260505235755 80 158 6.0 12.0 0.00 0.00 0.00 1 1005.0
20260505235255 80 148 7.0 12.0 0.00 0.00 0.00 1 1005.1
20260505234755 81 128 7.0 15.0 0.00 0.00 0.00 1 1005.0
20260505233756 81 141 6.0 15.0 0.00 0.00 0.00 1 1005.0
20260505233252 81 135 8.0 16.0 0.00 0.00 0.00 1 1005.1
20260505232754 81 120 7.0 16.0 0.00 0.00 0.00 1 1004.9
20260505232253 81 159 6.0 18.0 0.00 0.00 0.00 1 1005.1
20260505231755 81 110 10.0 18.0 0.00 0.00 0.00 1 1005.0
20260505231253 81 114 6.0 14.0 0.00 0.00 0.00 1 1004.9
20260505230756 81 157 9.0 14.0 0.00 0.00 0.00 1 1005.1
20260505230254 81 117 7.0 13.0 0.00 0.00 0.00 1 1005.1
20260505225753 81 155 8.0 13.0 0.00 0.00 0.00 1 1005.1
20260505225252 82 102 6.0 14.0 0.00 0.00 0.00 1 1005.2
20260505224253 82 94 10.0 15.0 0.00 0.00 0.00 1 1005.3
20260505223755 82 125 8.0 14.0 0.00 0.00 0.00 3 1005.3
20260505223251 82 117 8.0 15.0 0.00 0.00 0.00 1 1005.3
20260505222754 82 158 7.0 15.0 0.00 0.00 0.00 6 1005.5
20260505222253 82 161 8.0 15.0 0.00 0.00 0.00 3 1005.5
20260505221754 82 166 6.0 16.0 0.00 0.00 0.00 9 1005.5
20260505221253 82 100 8.0 16.0 0.00 0.00 0.00 5 1005.5
20260505220753 82 116 8.0 15.0 0.00 0.00 0.00 15 1005.5
20260505215753 83 145 7.0 15.0 0.00 0.00 0.00 18 1005.6
20260505215252 83 87 9.0 15.0 0.00 0.00 0.00 24 1005.5
20260505214752 83 109 7.0 14.0 0.00 0.00 0.00 29 1005.6
20260505214250 84 145 6.0 14.0 0.00 0.00 0.00 36 1005.6
20260505213753 84 155 7.0 16.0 0.00 0.00 0.00 41 1005.6
20260505213251 84 138 8.0 16.0 0.00 0.00 0.00 47 1005.6
20260505212250 84 128 9.0 13.0 0.00 0.00 0.00 47 1005.8
20260505211751 84 147 7.0 12.0 0.00 0.00 0.00 50 1005.9
20260505211250 84 125 6.0 14.0 0.00 0.00 0.00 46 1006.0
20260505210752 84 166 7.0 14.0 0.00 0.00 0.00 49 1006.0
20260505210249 84 114 8.0 15.0 0.00 0.00 0.00 45 1006.1
20260505205752 84 152 9.0 15.0 0.00 0.00 0.00 45 1006.1
20260505205250 84 159 8.0 13.0 0.00 0.00 0.00 44 1006.2
20260505204751 84 137 9.0 13.0 0.00 0.00 0.00 43 1006.2
20260505204248 84 118 6.0 13.0 0.00 0.00 0.00 41 1006.3
20260505203753 83 131 8.0 13.0 0.00 0.00 0.00 42 1006.3
20260505203249 84 161 7.0 15.0 0.00 0.00 0.00 42 1006.5
20260505202250 84 178 8.0 15.0 0.00 0.00 0.00 48 1006.5
20260505201750 84 162 9.0 15.0 0.00 0.00 0.00 41 1006.6
20260505201249 84 155 8.0 16.0 0.00 0.00 0.00 46 1006.6
20260505200751 84 159 7.0 16.0 0.00 0.00 0.00 41 1006.7
20260505200249 84 111 6.0 12.0 0.00 0.00 0.00 40 1006.8
20260505195749 84 140 6.0 15.0 0.00 0.00 0.00 36 1006.9
20260505195248 84 166 7.0 15.0 0.00 0.00 0.00 39 1006.9
20260505194750 84 154 8.0 12.0 0.00 0.00 0.00 45 1006.8
20260505194249 84 114 2.0 12.0 0.00 0.00 0.00 43 1006.9
20260505193751 84 144 6.0 12.0 0.00 0.00 0.00 44 1007.0
20260505193248 83 131 6.0 11.0 0.00 0.00 0.00 36 1007.0
20260505192749 83 148 5.0 12.0 0.00 0.00 0.00 34 1007.0
20260505192248 83 182 6.0 14.0 0.00 0.00 0.00 33 1007.1
20260505191749 83 125 6.0 14.0 0.00 0.00 0.00 36 1007.2
20260505191248 83 178 5.0 11.0 0.00 0.00 0.00 24 1007.2
20260505190750 82 155 6.0 12.0 0.00 0.00 0.00 29 1007.3
20260505190247 82 140 7.0 12.0 0.00 0.00 0.00 30 1007.2
20260505184748 82 161 4.0 9.0 0.00 0.00 0.00 20 1007.5
20260505184246 82 149 6.0 9.0 0.00 0.00 0.00 21 1007.5
20260505183750 82 127 5.0 9.0 0.00 0.00 0.00 18 1007.6
20260505183246 82 140 4.0 10.0 0.00 0.00 0.00 25 1007.7
20260505182747 82 148 3.0 12.0 0.00 0.00 0.00 21 1007.8
20260505181748 82 179 5.0 11.0 0.00 0.00 0.00 24 1007.7
20260505180748 82 175 4.0 9.0 0.00 0.00 0.00 17 1007.8
20260505180245 82 165 4.0 9.0 0.00 0.00 0.00 18 1007.8
20260505175246 82 199 5.0 13.0 0.00 0.00 0.00 6 1007.9
20260505174746 82 196 6.0 10.0 0.00 0.00 0.00 8 1007.8
20260505174246 81 171 4.0 10.0 0.00 0.00 0.00 1 1007.9
20260505173749 81 157 5.0 13.0 0.00 0.00 0.00 1 1008.0
20260505173246 81 171 7.0 13.0 0.00 0.00 0.00 1 1008.0
20260505172747 81 196 5.0 7.0 0.00 0.00 0.00 1 1008.0
20260505172246 80 138 4.0 7.0 0.00 0.00 0.00 1 1008.1
20260505171747 81 178 5.0 10.0 0.00 0.00 0.00 1 1008.1
20260505170748 81 169 6.0 10.0 0.00 0.00 0.00 1 1008.2
20260505170245 81 195 5.0 9.0 0.00 0.00 0.00 1 1008.2
20260505165747 80 176 4.0 9.0 0.00 0.00 0.00 1 1008.2
20260505165245 80 148 2.0 12.0 0.00 0.00 0.00 1 1008.3
20260505164747 80 179 5.0 12.0 0.00 0.00 0.00 1 1008.3
20260505164244 80 133 6.0 11.0 0.00 0.00 0.00 1 1008.3
20260505163746 80 158 4.0 11.0 0.00 0.00 0.00 1 1008.2
20260505163244 79 171 6.0 11.0 0.00 0.00 0.00 1 1008.3
20260505162746 79 168 4.0 7.0 0.00 0.00 0.00 1 1008.3
20260505162244 78 152 3.0 7.0 0.00 0.00 0.00 1 1008.3
20260505161744 78 96 4.0 7.0 0.00 0.00 0.00 1 1008.4
20260505161244 78 140 3.0 6.0 0.00 0.00 0.00 1 1008.3
20260505160747 78 144 3.0 5.0 0.00 0.00 0.00 1 1008.3
20260505160243 78 128 1.0 5.0 0.00 0.00 0.00 1 1008.2
20260505153242 76 142 2.0 3.0 0.00 0.00 0.00 1 1008.3
20260505152744 75 200 1.0 3.0 0.00 0.00 0.00 1 1008.3
20260505152242 75 152 1.0 2.0 0.00 0.00 0.00 1 1008.3
20260505151744 75 209 0.0 4.0 0.00 0.00 0.00 1 1008.4
20260505151243 75 209 1.0 4.0 0.00 0.00 0.00 1 1008.3
20260505150744 75 188 2.0 6.0 0.00 0.00 0.00 1 1008.3
20260505150241 75 166 4.0 6.0 0.00 0.00 0.00 1 1008.2
20260505140240 73 149 1.0 3.0 0.00 0.00 0.00 1 1008.1
20260505130234 0 0.0 0.0 0.00 0.00 0.00 1008.0
20260505124718 0 0.0 0.0 0.00 0.00 0.00 1007.9
20260505124209 0 0.0 0.0 0.00 0.00 0.00 1007.8
20260505123706 0 0.0 0.0 0.00 0.00 0.00 1007.8
20260505123156 0 0.0 0.0 0.00 0.00 0.00 1007.8
20260505122653 0 0.0 0.0 0.00 0.00 0.00 1007.7
20260505122144 0 0.0 0.0 0.00 0.00 0.00 1007.6
20260505121640 0 0.0 0.0 0.00 0.00 0.00 1007.5
20260505121132 0 0.0 0.0 0.00 0.00 0.00 1007.5
20260505120630 0 0.0 0.0 0.00 0.00 0.00 1007.4
20260505120119 0 0.0 0.0 0.00 0.00 0.00 1007.3
20260505115616 0 0.0 0.0 0.00 0.00 0.00 1007.3
20260505115108 0 0.0 0.0 0.00 0.00 0.00 1007.3
20260505114604 0 0.0 0.0 0.00 0.00 0.00 1007.3
20260505113552 0 0.0 0.0 0.00 0.00 0.00 1007.5
20260505113042 0 0.0 0.0 0.00 0.00 0.00 1007.5
20260505112539 0 0.0 0.0 0.00 0.00 0.00 1007.5
20260505112031 0 0.0 0.0 0.00 0.00 0.00 1007.5
20260505111526 0 0.0 0.0 0.00 0.00 0.00 1007.4
20260505111018 0 0.0 0.0 0.00 0.00 0.00 1007.3
20260505101916 0 0.0 0.0 0.00 0.00 0.00 1007.3
20260505100903 0 0.0 0.0 0.00 0.00 0.00 1007.3
20260505100401 0 0.0 0.0 0.00 0.00 0.00 1007.4
20260505095347 0 0.0 0.0 0.00 0.00 0.00 1007.4
20260505094839 0 0.0 0.0 0.00 0.00 0.00 1007.6
20260505094334 69 133 0.0 1.0 0.00 0.00 0.00 1 1007.6
20260505093827 69 133 0.0 1.0 0.00 0.00 0.00 1 1007.7
20260505093330 68 134 0.0 0.0 0.00 0.00 0.00 1 1007.7
20260505092826 68 134 0.0 0.0 0.00 0.00 0.00 1 1007.7
20260505092326 68 134 0.0 1.0 0.00 0.00 0.00 1 1007.7
20260505091824 68 134 0.0 1.0 0.00 0.00 0.00 1 1007.8